Regional Weather Roundup
Issued by NWS

Home | Current Version | Previous Version | Text Only | Print | Product List | Glossary Off
Versions: 1 2 3 4 5 6 7 8 9 10 11 12 13 14 15 16 17 18 19 20 21 22 23 24 25 26 27

000
ASUS45 KSLC 131110
RWRUT

UTAH REGIONAL WEATHER ROUNDUP
NATIONAL WEATHER SERVICE SALT LAKE CITY UT
400 AM MST WED DEC 13 2017

UTZ001>011-023>025-131200-

NORTHERN UTAH

CITY           SKY/WX    TMP DP  RH WIND       PRES   REMARKS
BRIGHAM CITY   CLOUDY    20  18  88 CALM      30.40S VSB 1/2
HILL AFB         N/A     21  20  94 CALM      30.35F VSB 3/8
LOGAN          CLOUDY    20  14  77 CALM      30.38F
OGDEN          CLOUDY    22  21  96 CALM      30.36F FOG
SALT LAKE CITY FOG       23  22  96 N6        30.40R VSB 1/2 WCI  16
TOOELE VALLEY  CLOUDY    19  19 100 SW5       30.41R FOG     WCI  13
WENDOVER       FOG       12   9  87 E6        30.40R VSB 1   WCI   3
HEBER CITY       N/A     12   9  85 CALM      30.30F
WEST JORDAN    CLOUDY   N/A N/A N/A W3        30.38R VSB 1/2

$$

UTZ011>015-024>027-131200-

CENTRAL/NORTHEAST UTAH

CITY           SKY/WX    TMP DP  RH WIND       PRES   REMARKS
PROVO AIRPORT  HAZE      20  18  92 CALM      30.36F VSB 1/4
MOAB/CANYONLAN MOCLDY    23   3  42 CALM      30.26S
DELTA          CLOUDY     9   3  78 S8        30.33F WCI  -4
PRICE          PTCLDY    20   1  43 NE5       30.24F WCI  13
RICHFIELD      CLEAR      9   1  72 CALM      30.34S
ROOSEVELT      CLOUDY    18   9  68 SW3       30.30S
VERNAL         CLOUDY    22  10  60 CALM      30.26F

$$

UTZ013>016-019>022-027-131200-

SOUTHERN UTAH

CITY           SKY/WX    TMP DP  RH WIND       PRES   REMARKS
BRYCE CANYON   PTCLDY    13   2  61 W8        30.33F WCI   2
CEDAR CITY     MOCLDY    14   6  70 CALM      30.30F
MILFORD        CLOUDY    12   4  70 SW9       30.33S WCI   0
ST GEORGE      MOSUNNY   31   6  35 S5        30.25S WCI  26
HANKSVILLE     CLOUDY    12  -6  44 CALM      30.29F
KANAB          CLEAR     23   3  42 E6        30.29F WCI  16
BLANDING         N/A     31   4  31 CALM      30.32S

$$

REGIONAL REPORTS     COLORADO/ARIZONA

CITY           SKY/WX    TMP DP  RH WIND       PRES   REMARKS
CRAIG, CO      CLOUDY     8   3  80 W5        30.27F WCI   0
GRAND JUNCTION CLOUDY    24  10  55 CALM      30.27F
RIFLE, CO      CLOUDY    20  10  65 CALM      30.30S
MONTROSE, CO   CLOUDY    21   9  59 S8        30.30F WCI  11
CORTEZ, CO     CLOUDY    13   3  64 E8        30.27F WCI   2
COLORADO CITY    N/A     21   1  42 E3        30.27F
PAGE, AZ       MOCLDY    30  11  45 SW3       30.26F
GRAND CANYON   MOCLDY    19   4  51 NE9       30.27F WCI   8
KINGMAN, AZ    PTCLDY    36   4  26 E7        30.16F WCI  30
FLAGSTAFF, AZ  MOCLDY    14  -4  44 CALM      30.26F

$$

REGIONAL REPORTS    NEVADA/IDAHO/WYOMING

CITY           SKY/WX    TMP DP  RH WIND       PRES   REMARKS
LAS VEGAS, NV  CLEAR     45   3  17 SW5       30.15F
ELY, NY        MOCLDY    15   1  53 S12       30.35F WCI   2
ELKO, NV       CLOUDY    13   9  84 E6        30.37F WCI   4
POCATELLO, ID  FOG       20  17  88 CALM      30.38F VSB 1/4
BURLEY, ID     HAZE      22  17  81 CALM      30.39S VSB 3/4
FORT BRIDGER,    N/A     34   2  25 W9        30.30F WCI  27
EVANSTON, WY   CLOUDY    32   2  27 SW7       30.30S WCI  26
ROCK SPRINGS,  CLOUDY    30   2  30 CALM      30.24R

$$




USA.gov is the U.S. government's official web portal to all federal, state and local government web resources and services.